Starlink 3567

operational
NORAD ID: 51871 Int'l Des: 2022-022 Owner: SPXS Country: US Constellation: starlink
LEOCIRCULAR

About Starlink 3567

Description loading...

Live Position

Loading 3D Globe...

Upcoming Passes

Altitude History

Altitude vs Time

uPlot chart will show altitude changes over time

Two-Line Element Set

1 51871U 22022V 25304.77747218 -.00001382 00000-0 -68754-4 0 9997
2 51871 53.2148 227.8311 0001794 72.8974 287.2215 15.08832681203766
Epoch: Oct 31, 2025 • Age: 17 hours

Current Status

Altitude 544.6 km
Velocity 7.59 km/s
Sub-Earth Point -17.32°S, 10.62°W
Launch Date Mar 3, 2022
Age 3.6 years
Type internet

Technical Details

Classification Payload
Mass 297.00 kg
Dry Mass 275.00 kg
Total Mass 297.00 kg
Length 0.20 m
Diameter 2.80 m
Span 9.00 m
Shape Box + pan
Manufacturer SPXS
Bus Type Starlink
Phase Status In Orbit
Owner/State SPXS/US

Large Constellations

Loading constellations...